Weather History for Wallops Island, VA

Change the Weather History Date:

Saturday, January 18, 2014

  Actual Average Record
Temperature  
Mean Temperature 37 °F 36 °F  
Max Temperature 50 °F 45 °F 68 °F (1990)
Min Temperature 24 °F 28 °F 3 °F (2003)
Degree Days  
Heating Degree Days 28    
Month to date heating degree days 482  
Since 1 July heating degree days 1765  
Cooling Degree Days 0    
Month to date cooling degree days 0  
Year to date cooling degree days 0  
Moisture  
Dew Point 24 °F    
Average Humidity 64    
Maximum Humidity 89    
Minimum Humidity 38    
Precipitation  
Precipitation 0.02 in 0.10 in 1.05 in (2004)
Month to date precipitation 2.28 1.78  
Year to date precipitation 2.28 1.78  
Sea Level Pressure  
Sea Level Pressure 29.86 in    
Wind  
Wind Speed 10 mph (NW)    
Max Wind Speed 23 mph    
Max Gust Speed 31 mph    
Visibility 10 miles    
Events      
T = Trace of Precipitation, MM = Missing Value Source: NWS Daily Summary

Daily Weather History Graph

Daily Weather History Graph

Search for Another Location

Airport:

Trip Planner

Search our weather history database for the weather conditions in past years. The results will help you decide how hot, cold, wet, or windy it might be!

Date:

Astronomy

Jan. 18, 2014 Rise Set
Actual Time 7:15 AM EST 5:09 PM EST
Civil Twilight 6:46 AM EST 5:38 PM EST
Nautical Twilight 6:14 AM EST 6:10 PM EST
Astronomical Twilight 5:43 AM EST 6:41 PM EST
Moon 7:46 PM EST (1/18) 8:16 AM EST (1/18)
Length of Visible Light 10h 51m
Length of Day
9h 54m
Waning Gibbous, 94% of the Moon is Illuminated
Jan 18
Waning Gibbous
Jan 24
Last Quarter
Jan 30
New
Feb 6
First Quarter
Feb 14
Full

Hourly Weather History & Observations

Time (EST) Temp. Windchill Dew Point Humidity Pressure Visibility Wind Dir Wind Speed Gust Speed Precip Events Conditions
12:54 AM 46.0 °F 41.4 °F 37.0 °F 71% 29.82 in 10.0 mi SW 9.2 mph - N/A   Clear
1:54 AM 44.1 °F 40.8 °F 36.0 °F 73% 29.79 in 10.0 mi SW 5.8 mph - N/A   Clear
2:54 AM 48.0 °F - 34.0 °F 58% 29.77 in 10.0 mi WSW 6.9 mph - N/A   Overcast
3:54 AM 50.0 °F - 30.9 °F 48% 29.78 in 10.0 mi West 6.9 mph - N/A   Overcast
4:54 AM 45.0 °F 40.6 °F 37.9 °F 76% 29.75 in 10.0 mi WNW 8.1 mph - 0.01 in   Overcast
5:54 AM 42.1 °F - 39.0 °F 89% 29.73 in 10.0 mi Calm Calm - 0.01 in   Mostly Cloudy
6:44 AM 39.0 °F 31.4 °F 34.0 °F 82% 29.76 in 10.0 mi NNW 12.7 mph 24.2 mph N/A   Mostly Cloudy
6:54 AM 39.0 °F 31.4 °F 34.0 °F 82% 29.77 in 10.0 mi NNW 12.7 mph - N/A   Overcast
7:20 AM 37.9 °F 28.9 °F 32.0 °F 79% 29.78 in 9.0 mi NNW 16.1 mph 20.7 mph N/A   Overcast
7:54 AM 37.0 °F 27.4 °F 30.0 °F 76% 29.79 in 10.0 mi NNW 17.3 mph 21.9 mph N/A   Mostly Cloudy
8:54 AM 39.0 °F 29.3 °F 28.9 °F 67% 29.81 in 10.0 mi NNW 19.6 mph 24.2 mph N/A   Mostly Cloudy
9:54 AM 37.9 °F 27.6 °F 26.1 °F 62% 29.86 in 10.0 mi NNW 20.7 mph 29.9 mph N/A   Scattered Clouds
10:54 AM 39.9 °F 31.4 °F 23.0 °F 51% 29.87 in 10.0 mi NW 16.1 mph 23.0 mph N/A   Mostly Cloudy
11:54 AM 37.0 °F 28.5 °F 17.1 °F 44% 29.86 in 10.0 mi NW 13.8 mph 23.0 mph N/A   Mostly Cloudy
12:54 PM 39.0 °F 30.3 °F 18.0 °F 43% 29.86 in 10.0 mi NW 16.1 mph 24.2 mph N/A   Mostly Cloudy
1:54 PM 37.0 °F 27.4 °F 15.1 °F 41% 29.87 in 10.0 mi WNW 17.3 mph 27.6 mph N/A   Clear
2:54 PM 37.0 °F 27.4 °F 15.1 °F 41% 29.87 in 10.0 mi NNW 17.3 mph 25.3 mph N/A   Partly Cloudy
3:54 PM 36.0 °F 26.3 °F 12.9 °F 39% 29.90 in 10.0 mi NW 16.1 mph - N/A   Clear
4:54 PM 33.1 °F 23.9 °F 12.0 °F 42% 29.93 in 10.0 mi NW 12.7 mph - N/A   Clear
5:54 PM 30.9 °F 23.5 °F 12.0 °F 46% 29.96 in 10.0 mi NW 8.1 mph - N/A   Clear
6:54 PM 28.9 °F 23.9 °F 12.9 °F 51% 29.97 in 10.0 mi NNW 4.6 mph - N/A   Clear
7:54 PM 28.9 °F 25.2 °F 12.9 °F 51% 29.99 in 10.0 mi NW 3.5 mph - N/A   Clear
8:54 PM 28.0 °F 24.2 °F 14.0 °F 56% 30.02 in 10.0 mi WNW 3.5 mph - N/A   Clear
9:54 PM 27.0 °F 23.0 °F 12.0 °F 53% 30.00 in 10.0 mi NW 3.5 mph - N/A   Clear
10:54 PM 27.0 °F - 14.0 °F 58% 30.00 in 10.0 mi Calm Calm - N/A   Clear
11:54 PM 25.0 °F - 12.9 °F 60% 29.99 in 10.0 mi Calm Calm - N/A   Clear